Погода Кайластуй

Погода Кайластуй : погода сейчас, прогноз погоды и архив. Всё, что Вы хотите узнать о погоде Кайластуй!

Хотите узнать прогноз погоды Кайластуй? Тогда Вам сюда: Погода Кайластуй

Поиск расширенной информации на нашем сайте:

Другие новости

Новости СМИ2

Главная страница сайта

Новости сайта

03.07.2017

Напоминаем, что на нашем специализированном сайте Метеоцентр.Азия вы можете получить высокодетализированные автоматические прогнозы погоды по пунктам России, СНГ и мира в авиационном формате (включающие направление и скорость ветра, видимость, явления погоды, количество и форму облачности, нижнюю и верхнюю границу облачности).


Погода Кайластуй - сегодня

Время (UTC), дата Ветер
(°,м/с) 
Видим.   Явления Облачность Т
(°С)
Тd
(°С)
f(%) Тe
(°С)
Pmin
(гПа)
dP
(гПа)
Po
(мм)
O2
(г/м3)
Тmin Tmax R s Состояние
почвы
00 21.11.17 050 (СВ) 20000 м    10/0 средняя 
[As op]
-15.5 -17.1 88 -18  1012.4  0.6  707  303  -15.6      <0.5  сухой снег
10-40% 
03 21.11.17 050 (СВ) 20000 м    8/0 верхняя 
[Cs]
-10.5 -12.9 82 -12  1011.5  0.5  707  297           
06 21.11.17 150 (ЮВ) 20000 м    4/0 средняя, верхняя 
[Cu hum|Ac lent|Ci fib]
-7.2 -12 69 -9  1010.7  -0.1  707  294           
09 21.11.17 310 (СЗ) 7-10{10}  20000 м    3/0 верхняя 
[Ci fib]
-7.8 -12.5 69 -13  1011.9  708  295           
12 21.11.17 310 (СЗ) 10-13{14}  20000 м    8/0 средняя, верхняя 
[Ac lent|Cs]
-8.3 -13.9 64 -15  1013.7  1.5  709  296    -5.8       
15 21.11.17 310 (СЗ) 8-12{14}  20000 м    5/0 средняя, верхняя 
[Ac lent|Ci fib]
-10.1 -15.9 62 -17  1015  0.7  709  298           
18 21.11.17 310 (СЗ) 8-11{12}  20000 м    ясно 
-12.1 -18 61 -19  1016.1  0.5  710  301           
21 21.11.17 320 (СЗ) 6{12}  20000 м    ясно 
-13.1 -18.6 63 -19  1016.3  -0.1  710  302           
00 22.11.17 330 (СЗ) 5{11}  20000 м    5/0 средняя, верхняя 
[Ac lent|Ci fib]
-14.5 -19.9 64 -20  1017.5  0.7  710  304  -14.5      <0.5  сухой снег
50-90% 
03 22.11.17 320 (СЗ) 8-11{12}  20000 м    3/3 1000 м 
[Cu hum]
-10.9 -19.2 50 -17  1016.6  0.1  710  300  -14.6         
06 22.11.17 280 (З) 5{11}  20000 м    4/3 1000 м верхняя 
[Cu med, cong|Ci fib]
-9.1 -19.6 42 -14  1015.8  -0.3  710  297           
09 22.11.17 290 (З) 6{10}  20000 м    3/0 средняя 
[Ac lent]
-13.7 -21.7 51 -20  1017.4  0.4  710  303           
12 22.11.17 340 (С) 3{10}  20000 м    ясно 
-17.5 -22.9 63 -21  1019.1  0.6  711  308    -8.9       
15 22.11.17 220 (ЮЗ) 20000 м    ясно 
-24.1 -27.3 75 -25  1021.3  0.2  711  316           
18 22.11.17 330 (СЗ) 20000 м    ясно 
-19.1 -25.3 58 -25  1019.9  711  310           
21 22.11.17 330 (СЗ) 20000 м    ясно 
-19.6 -26 57 -27  1020.4  0.4  711  310           
00 23.11.17 200 (Ю) 20000 м    3/0 верхняя 
[Ci sp]
-26.3 -29.7 73 -27  1024.1  1.6  713  319  -27.7      <0.5  сухой снег
50-90% 
03 23.11.17 110 (В) 20000 м    10/0 верхняя 
[Cs]
-15.9 -23.2 53 -16  1022.1  713  307           
06 23.11.17 030 (СВ) 20000 м    10/0 верхняя 
[Cs]
-13.8 -23.9 42 -17  1021.3  -0.2  713  304           
09 23.11.17 250 (З) 20000 м    3/0 верхняя 
[Ci fib]
-19.9 -24.9 64 -23  1024.7  1.5  714  312           
12 23.11.17 100 (В) 20000 м    3/0 верхняя 
[Ci fib]
-23.7 -27.1 73 -24  1026.3  0.4  715  317    -13.6       
15 23.11.17 тихо ()   20000 м    ясно 
-25 -27.8 77 -25  1026.1  -0.5  714  318           
18 23.11.17 тихо ()   20000 м    ясно 
-27 -29.8 77 -27  1026.3  -0.5  714  321           
21 23.11.17 250 (З) 20000 м    ясно 
-28.2 -31.2 75 -29  1025.9  -0.7  713  322           
00 24.11.17 330 (СЗ) 20000 м    3/0 верхняя 
[Ci fib]
-28.4 -31.3 76 -29  1025.9  -0.1  713  323  -31.2      <0.5  сухой снег
50-90% 
Время (UTC), дата Ветер
(°,м/с) 
Видим.   Явления Облачность Т
(°С)
Тd
(°С)
f(%) Тe
(°С)
Pmin
(гПа)
dP
(гПа)
Po
(мм)
O2
(г/м3)
Тmin Tmax R s Состояние
почвы

Для получения пояснительной информации подведите курсор к названию столбца.

ПОГОДА Кайластуй - архив

Всё, что Вы хотите узнать о погоде Кайластуй - удобно и подробно!

Выберите нужную дату (начиная с 1 января 2015* года) и нажмите кнопку "Найти".
Будут отображены архивные сводки погоды по пункту Кайластуй, начиная с указанной даты.


Отображать данные в формате CSV (для использования в таблицах Excel)


Внимание! Наш архив погоды предназначен исключительно для личного некоммерческого использования в познавательных целях. Если Вам необходимы официальные справки о состоянии погоды (для производственных, юридических, коммерческих и т.п. целей), обращайтесь в органы Росгидромета.

*Примечание: данная дата относится к архиву по метеостанциям СССР (Россия, СНГ, Балтия).
Архив по метеостанциям Зарубежной Европы и Азии (кроме Китая) хранится 10 дней, по другим регионам земного шара (Китай, Африка, Америка, Австралия, Океания) - 1 день.

Кайластуй - район местоположения метеостанции


Название, широта, долгота, высота метеостанции:
Кайластуй 49.8°ш. 118.4°д. 550 м над ур. моря [Российская Федерация]

Дополнительная информация

В oтличие oт бoльшинства пoгoдных сайтoв мы публикуем пoдрoбную метеoинфoрмацию в детальнoм прoфессиoнальнoм фoрмате.

Характеристики температуры и влажнoсти вoздуха измеряются на высoте 2 м в тени вдали oт зданий и деревьев.
Скoрoсть ветра измеряется на высoте 10 м (на урoвне рoста челoвека скoрoсть ветра ниже в 1.5-2 раза). Если метеoстанция нахoдится в гoрoде или в лесу, тo скoрoсть ветра занижена на 2-4 м/с пo сравнению с oткрытым местoм. Скoрoсть ветра над акватoриями крупных рек и oзёр, а также на вершинах хoлмoв на 2-5 м/с выше, чем в oбычных услoвиях.
Атмoсфернoе давление в разных тoчках местнoсти мoжет значительнo oтличаться oт давления на метеoстанции, в зависимoсти oт услoвий рельефа (при пoдъёме на 10 м давление пoнижается примернo на 1 мм рт.ст.).